Weather in Slonim

Belarus     53°05′33″N   25°19′09″E
temp.,
°C
wind,
m/s
gust,
m/s
humid.,
%
clouds,
%
prec.,
mm/h
press.,
hPa
HPBL,
m
13 june, sun
sun1300:00+13wnw3798100 5.8 1006450
03:00+12wnw4998100 11.5 1006458
06:00+11nw51095100 0.1 1006488
09:00+12wnw5889100 0.1 1007524
12:00+16wnw566853 0.0 1008895
15:00+17nw6768100 0.9 10081205
18:00+15nnw71191100 2.8 1010841
21:00+13nnw61388100 3.2 1012940
14 june, mon
mon1400:00+11nnw6147399 0.0 1014688
03:00+10nnw61374100 0.0 1015604
06:00+10nnw61278100 0.0 1016497
09:00+11nnw5128294 0.0 1017488
12:00+17n686563 0.0 10181009
15:00+19n5663100 0.0 10171384
18:00+17n2479100 0.1 1018155
21:00+16nnw2281100 0.1 101734
15 june, tue
tue1500:00+15nw2577100 0.0 1018112
03:00+14nnw3677100 0.0 1018180
06:00+13nw247776 0.0 1018104
09:00+16wnw346444 0.0 1018416
12:00+19wnw3458100 0.0 1018811
15:00+20wnw4564100 0.0 10171014
18:00+20wnw2570100 0.0 1016932
21:00+16nnw3891100 0.5 1016260
16 june, wed
wed1600:00+15nnw389766 0.0 1017354
03:00+12nnw389812 0.0 1018222
06:00+8nnw37965 0.0 1019165
09:00+14n46740 0.0 1020444
12:00+18nne45565 0.0 10201236
15:00+20n454923 0.0 10201469
18:00+20nne45545 0.0 10201386
21:00+15n34802 0.0 102168
17 june, thu
thu1700:00+12ne22915 0.0 102231
03:00+11nne23915 0.0 102348
06:00+11ne25915 0.0 102387
09:00+18ene35610 0.0 1023438
12:00+22e46470 0.0 10231504
15:00+24e45445 0.0 10221709
18:00+23e45525 0.0 10221253
21:00+18ene34750 0.0 102270